Flag for Kazakhstan Weather past 2 weeks in Astana, Kazakhstan

Now
41 °F

More clouds than sun.


Feels Like: 32 °F
Forecast: 38 / 55 °F
Wind: 17 mph from West

Location: Astana

Current Time: Sep 19, 2014 at 12:45:15 PM

Latest Report: Sep 19, 2014 at 12:00 PM


Visibility: N/A

Pressure: 30.07 "Hg

Humidity: 45%

Dew point: 21 °F

Location of AstanaLocation

Historic Weather in Astana — Graph

°F

Astana temperature yesterday

Maximum temperature yesterday: 50 °F (at 12:00 AM)
Minimum temperature yesterday: 34 °F (at 6:00 AM)
Average temperature yesterday: 42 °F

Past Weeks' High & Low Weather Summary

 TemperatureHumidityPressure
High77 °F (Sep 6, 3:30 PM)100% (Sep 18, 7:00 AM)30.39 "Hg (Sep 18, 7:00 AM)
Low27 °F (Sep 12, 7:00 AM)13% (Sep 6, 1:30 PM)29.50 "Hg (Sep 17, 5:30 PM)
Average52 °F58%29.97 "Hg
* Reported Sep 4 11:00 AM — Sep 19 11:30 AM, Astana, Weather by CustomWeather, © 2014

Note: Actual official high and low records may vary slightly from our data, if they occured in-between our weather recording intervals... More about our weather records

Advertising

Astana weather history for previous 24 hours

 ConditionsComfort  
Time TempWeatherWind HumidityBarometerVisibility
11:30 AM
Sep 19
41 °FMore clouds than sun.13 mph57%30.07 "HgN/A
11:00 AM39 °FOvercast.20 mph52%30.07 "HgN/A
10:30 AM39 °FPassing clouds.15 mph52%30.07 "HgN/A
10:00 AM39 °FSunny.17 mph56%30.07 "Hg10 mi
9:30 AM37 °FPartly sunny.15 mph65%30.04 "HgN/A
9:00 AM36 °FPartly sunny.17 mph70%30.04 "HgN/A
8:30 AM34 °FOvercast.15 mph75%30.01 "HgN/A
8:00 AM34 °FOvercast.15 mph75%30.01 "HgN/A
7:30 AM34 °FPartly sunny.13 mph75%30.01 "HgN/A
7:00 AM32 °FPartly sunny.13 mph80%30.01 "HgN/A
6:30 AM32 °FPassing clouds.13 mph80%29.98 "HgN/A
6:00 AM32 °FClear.13 mph75%29.98 "Hg10 mi
5:30 AM32 °FClear.13 mph75%29.98 "Hg10 mi
5:00 AM30 °FClear.10 mph80%29.98 "Hg10 mi
4:30 AM28 °FClear.8 mph86%29.98 "Hg10 mi
4:00 AM30 °FClear.8 mph86%29.98 "Hg10 mi
3:30 AM30 °FClear.8 mph80%29.95 "Hg10 mi
2:30 AM34 °FClear.10 mph75%29.95 "Hg10 mi
2:00 AM34 °FClear.10 mph75%29.95 "Hg10 mi
1:30 AM34 °FClear.8 mph75%29.95 "Hg10 mi
1:00 AM34 °FPassing clouds.8 mph75%29.95 "Hg4 mi
12:30 AM34 °FPartly cloudy.8 mph75%29.92 "Hg4 mi
12:00 AM34 °FClear.6 mph75%29.92 "Hg10 mi
11:30 PM
Sep 18
36 °FPassing clouds.3 mph70%29.92 "Hg5 mi
11:00 PM37 °FClear.6 mph70%29.92 "Hg10 mi
10:30 PM37 °FClear.6 mph70%29.89 "Hg10 mi
10:00 PM39 °FClear.8 mph61%29.89 "Hg10 mi
9:30 PM39 °FPassing clouds.6 mph61%29.86 "HgN/A
9:00 PM41 °FClear.6 mph57%29.86 "Hg10 mi
8:30 PM43 °FClear.8 mph49%29.83 "Hg10 mi
8:00 PM43 °FPassing clouds.10 mph49%29.83 "HgN/A
7:30 PM45 °FClear.10 mph42%29.80 "Hg10 mi
7:00 PM46 °FSunny.13 mph37%29.80 "Hg10 mi
6:30 PM48 °FSunny.15 mph34%29.80 "Hg10 mi
6:00 PM48 °FSunny.17 mph32%29.77 "Hg10 mi
5:30 PM48 °FPassing clouds.15 mph34%29.77 "HgN/A
5:00 PM48 °FSunny.15 mph32%29.77 "Hg10 mi
4:30 PM50 °FSunny.17 mph32%29.74 "Hg10 mi
4:00 PM48 °FPassing clouds.13 mph34%29.74 "HgN/A
3:30 PM50 °FPartly sunny.15 mph32%29.74 "HgN/A
3:00 PM50 °FPartly sunny.15 mph37%29.74 "HgN/A
2:30 PM48 °FBroken clouds.10 mph37%29.74 "HgN/A
2:00 PM48 °FBroken clouds.13 mph43%29.71 "HgN/A
1:30 PM46 °FBroken clouds.10 mph46%29.71 "HgN/A
1:00 PM46 °FBroken clouds.10 mph50%29.71 "HgN/A
12:30 PM45 °FBroken clouds.13 mph57%29.68 "HgN/A
12:00 PM45 °FBroken clouds.10 mph57%29.68 "HgN/A
Weather by CustomWeather, © 2014

See weather overviewHow to use our weather pages